C/2015 Y1 ( LINEAR )

Japanese version
Home page
Updated on November 13, 2016

---------------------------------------------------------------------

* Profile

Discovery Date December 16, 2015
Magnitude 18.3 mag
Discoverer LINEAR survey (Space Surveillance Telescope, Atom Peak, White Sands Missile Range, NM, USA)

* Pictures

* Orbital Elements

Epoch 2016 May 12.0 TT = JDT 2457520.5
T 2016 May 15.17114 TT                                  MPCW
q   2.5140954            (2000.0)            P               Q
z  +0.0034176      Peri.   24.70636     -0.74489915     +0.09550498
 +/-0.0000024      Node   135.77698     +0.33543231     -0.80191150
e   0.9914079      Incl.   71.21596     +0.57672387     +0.58975990
From 532 observations 2015 Dec. 16-2016 July 1, mean residual 0".5.

* Magnitudes Graph

        m1 = 4.5 + 5 log d + 25.0 log r

---------------------------------------------------------------------

The orbital elements are published on M.P.E.C. 2016-Q04.
The magnitudes graphs are made with Comet for Windows.

---------------------------------------------------------------------

Copyright(C) Seiichi Yoshida (comet@aerith.net). All rights reserved.